Regional Weather Roundup
Issued by NWS

Home | Current Version | Previous Version | Text Only | Print | Product List | Glossary On
Versions: 1 2 3 4 5 6 7 8 9 10 11 12 13 14 15 16 17 18 19 20 21 22 23 24 25 26 27 28 29 30 31 32 33 34 35 36 37 38 39 40 41 42 43 44 45 46 47 48 49 50
000
ASUS44 KJAN 212210
RWRMS

MISSISSIPPI HOURLY WEATHER ROUNDUP
NATIONAL WEATHER SERVICE JACKSON MS
500 PM CDT THU SEP 21 2017

NOTE: "FAIR: INDICATES FEW OR NO CLOUDS BELOW 12,000 FEET WITH NO
SIGNIFICANT WEATHER AND/OR OBSTRUCTIONS TO VISIBILITY.

MSZ001>002-007>008-010>013-018>021-025>028-034>036-212300-
NORTHWEST MISSISSIPPI

CITY           SKY/WX    TMP DP  RH WIND       PRES   REMARKS
BATESVILLE     FAIR      90  67  45 CALM      29.98F HX  93
CLARKSDALE       N/A     91  70  49 E7        29.97S HX  97
CLEVELAND      FAIR      91  69  48 SE6       29.95F HX  95
GREENWOOD      SUNNY     91  69  48 CALM      29.96F HX  96
GREENVILLE     MOSUNNY   91  67  44 SW6       29.94F HX  94
OLIVE BRANCH   MOSUNNY  N/A N/A N/A CALM      29.98F
OXFORD         FAIR      90  68  48 VRB5      30.00F HX  93
TUNICA           N/A     90  70  51 E7        29.98S HX  95
WINONA         FAIR      90  69  50 CALM      29.98S HX  94
$$

MSZ003>006-009-014>017-022>024-029>033-037>039-212300-
NORTHEAST MISSISSIPPI

CITY           SKY/WX    TMP DP  RH WIND       PRES   REMARKS
COLUMBUS AFB   SUNNY     91  72  53 NW6       29.96F HX  99
GOLDN TRIANGLE SUNNY     90  72  55 NW6       29.97S HX  97
STARKVILLE     FAIR      90  70  51 CALM      29.98F HX  95
TUPELO         PTSUNNY   92  67  43 CALM      29.97F HX  95
$$

MSZ040-058-212300-
CENTRAL MISSISSIPPI

CITY           SKY/WX    TMP DP  RH WIND       PRES   REMARKS
JACKSON INTL   MOSUNNY   90  72  55 NE6       29.96F HX  97
JACKSON HAWKNS MOSUNNY   90  71  53 NE5       29.96F HX  96
MADISON        FAIR      88  68  51 E3        29.96F HX  91
MERIDIAN KEY   SUNNY     91  68  46 E6        29.96F HX  95
MERIDIAN NAS   MOSUNNY   92  69  47 E8        29.97F HX  97
RAYMOND          N/A     91  72  52 E5        29.95F HX  98
VICKSBURG VKS  CLEAR     90  72  55 CALM      29.96F HX  96
$$

MSZ059>079-212300-
SOUTH MISSISSIPPI

CITY           SKY/WX    TMP DP  RH WIND       PRES   REMARKS
HATTIESBURG    SUNNY     91  70  49 NE6       29.95F HX  96
LAUREL         MOCLDY    91  68  48 NE6       29.96S HX  94
MCCOMB         CLOUDY    82  69  64 SW3       29.97R
NATCHEZ        SUNNY     87  74  64 NW3       29.96F HX  95
PINE BELT      SUNNY     90  71  53 NE7       29.96F HX  96
$$

MSZ080>082-212300-
COASTAL MISSISSIPPI

CITY           SKY/WX    TMP DP  RH WIND       PRES   REMARKS
BILOXI         PTSUNNY   86  74  68 CALM      29.94S HX  94
PASCAGOULA     CLOUDY    84  74  71 CALM      29.95R HX  91
GULFPORT       PTSUNNY   87  74  64 N9        29.94S HX  95
$$

LAZ007>009-015>016-023>026-212300-
NORTHEAST LOUISIANA

CITY           SKY/WX    TMP DP  RH WIND       PRES   REMARKS
BASTROP        FAIR      92  71  49 SW3       29.95F HX  98
TALLULAH/VBURG MOSUNNY   89  70  53 NE6       29.95F HX  94
VIDALIA          N/A    N/A N/A N/A MISG      29.94S
$$



USA.gov is the U.S. government's official web portal to all federal, state and local government web resources and services.